TimeCET,TemperatureF,Dew PointF,Humidity,Sea Level PressureIn,VisibilityMPH,Wind Direction,Wind SpeedMPH,Gust SpeedMPH,PrecipitationIn,Events,Conditions,WindDirDegrees,DateUTC
12:00 AM,14.0,12.2,93,29.89,0.9,Variable,3.5,-,N/A,,Scattered Clouds,0,2014-01-26 23:00:00
12:30 AM,12.2,12.2,100,29.86,0.9,Variable,2.3,-,N/A,,Scattered Clouds,0,2014-01-26 23:30:00
1:00 AM,12.2,12.2,100,29.86,0.9,Variable,1.2,-,N/A,,Scattered Clouds,0,2014-01-27 00:00:00
1:30 AM,12.2,12.2,100,29.86,0.9,Calm,Calm,-,N/A,,Mostly Cloudy,0,2014-01-27 00:30:00
2:00 AM,12.2,10.4,92,29.86,0.9,Calm,Calm,-,N/A,,Scattered Clouds,0,2014-01-27 01:00:00
2:30 AM,12.2,12.2,100,29.83,0.9,Variable,1.2,-,N/A,,Partly Cloudy,0,2014-01-27 01:30:00
3:00 AM,10.4,8.6,92,29.83,0.9,Calm,Calm,-,N/A,,Partly Cloudy,0,2014-01-27 02:00:00
3:30 AM,10.4,10.4,100,29.80,0.9,Variable,2.3,-,N/A,,Mist,0,2014-01-27 02:30:00
4:00 AM,10.4,8.6,92,29.80,0.9,Variable,1.2,-,N/A,,Scattered Clouds,0,2014-01-27 03:00:00
4:30 AM,10.4,8.6,92,29.80,0.9,Variable,2.3,-,N/A,,Partly Cloudy,0,2014-01-27 03:30:00
5:00 AM,8.6,8.6,100,29.80,0.7,Calm,Calm,-,N/A,,Partly Cloudy,0,2014-01-27 04:00:00
5:30 AM,10.4,8.6,92,29.77,0.9,Variable,3.5,-,N/A,,Partly Cloudy,0,2014-01-27 04:30:00
6:00 AM,12.2,8.6,85,29.80,0.6,ESE,4.6,-,N/A,,Scattered Clouds,110,2014-01-27 05:00:00
6:30 AM,12.2,8.6,85,29.80,0.6,ESE,4.6,-,N/A,,Scattered Clouds,110,2014-01-27 05:30:00
7:00 AM,12.2,8.6,85,29.80,0.6,Variable,1.2,-,N/A,,Scattered Clouds,0,2014-01-27 06:00:00
7:30 AM,12.2,8.6,85,29.77,0.6,Calm,Calm,-,N/A,,Scattered Clouds,0,2014-01-27 06:30:00
8:00 AM,14.0,10.4,86,29.80,0.6,Variable,3.5,-,N/A,,Mostly Cloudy,0,2014-01-27 07:00:00
8:30 AM,14.0,14.0,100,29.80,0.8,Variable,2.3,-,N/A,,Scattered Clouds,0,2014-01-27 07:30:00
9:00 AM,15.8,15.8,100,29.77,0.9,Variable,2.3,-,N/A,,Scattered Clouds,0,2014-01-27 08:00:00
9:30 AM,17.6,17.6,100,29.77,1.2,Variable,2.3,-,N/A,,Scattered Clouds,0,2014-01-27 08:30:00
10:00 AM,19.4,19.4,100,29.77,1.7,Variable,3.5,-,N/A,,Scattered Clouds,0,2014-01-27 09:00:00
10:30 AM,21.2,21.2,100,29.77,-9999.0,Variable,2.3,-,N/A,,Scattered Clouds,0,2014-01-27 09:30:00
11:00 AM,23.0,23.0,100,29.77,2.2,Variable,1.2,-,N/A,,Scattered Clouds,0,2014-01-27 10:00:00
11:30 AM,23.0,21.2,93,29.74,2.5,Variable,3.5,-,N/A,,Mostly Cloudy,0,2014-01-27 10:30:00
12:00 PM,24.8,21.2,86,29.74,2.5,Variable,1.2,-,N/A,,Mostly Cloudy,0,2014-01-27 11:00:00
12:30 PM,26.6,23.0,86,29.74,2.5,Variable,2.3,42.6,N/A,,Mostly Cloudy,0,2014-01-27 11:30:00
1:00 PM,24.8,21.2,86,29.74,-9999.0,Variable,2.3,-,N/A,,Mostly Cloudy,0,2014-01-27 12:00:00
1:30 PM,26.6,21.2,80,29.74,-9999.0,Variable,1.2,-,N/A,,Scattered Clouds,0,2014-01-27 12:30:00
2:00 PM,26.6,23.0,86,29.71,2.8,East,4.6,-,N/A,,Partly Cloudy,100,2014-01-27 13:00:00
2:30 PM,26.6,21.2,80,29.71,3.1,Variable,2.3,-,N/A,,Mostly Cloudy,0,2014-01-27 13:30:00
3:00 PM,26.6,21.2,80,29.71,3.1,Variable,1.2,-,N/A,,Mostly Cloudy,0,2014-01-27 14:00:00
3:30 PM,26.6,21.2,80,29.71,3.1,Variable,2.3,-,N/A,,Mostly Cloudy,0,2014-01-27 14:30:00
4:00 PM,26.6,21.2,80,29.71,3.1,Variable,3.5,-,N/A,,Mostly Cloudy,0,2014-01-27 15:00:00
4:30 PM,24.8,21.2,86,29.71,3.1,ESE,4.6,-,N/A,,Mist,120,2014-01-27 15:30:00
5:00 PM,24.8,21.2,86,29.71,2.8,Variable,3.5,-,N/A,,Mostly Cloudy,0,2014-01-27 16:00:00
5:30 PM,24.8,23.0,93,29.71,2.8,Variable,2.3,-,N/A,,Mostly Cloudy,0,2014-01-27 16:30:00
6:00 PM,24.8,23.0,93,29.71,2.8,Variable,3.5,-,N/A,,Mist,0,2014-01-27 17:00:00
6:30 PM,24.8,23.0,93,29.71,2.8,Variable,3.5,-,N/A,,Mostly Cloudy,0,2014-01-27 17:30:00
7:00 PM,24.8,23.0,93,29.71,2.8,ESE,5.8,-,N/A,,Mostly Cloudy,110,2014-01-27 18:00:00
7:30 PM,24.8,23.0,93,29.71,2.2,Variable,3.5,-,N/A,,Mostly Cloudy,0,2014-01-27 18:30:00
8:00 PM,24.8,23.0,93,29.71,2.2,Variable,1.2,-,N/A,,Overcast,0,2014-01-27 19:00:00
8:30 PM,24.8,23.0,93,29.71,2.2,Variable,2.3,-,N/A,,Mist,0,2014-01-27 19:30:00
9:00 PM,24.8,23.0,93,29.71,2.2,Variable,3.5,-,N/A,,Overcast,0,2014-01-27 20:00:00
9:30 PM,24.8,23.0,93,29.71,2.2,Variable,3.5,-,N/A,,Overcast,0,2014-01-27 20:30:00
10:00 PM,24.8,23.0,93,29.71,1.9,WSW,4.6,-,N/A,,Scattered Clouds,240,2014-01-27 21:00:00
10:30 PM,24.8,23.0,93,29.68,1.9,Variable,2.3,-,N/A,,Scattered Clouds,0,2014-01-27 21:30:00
11:00 PM,23.0,21.2,93,29.68,1.9,West,5.8,-,N/A,,Scattered Clouds,270,2014-01-27 22:00:00
11:30 PM,24.8,23.0,93,29.68,1.9,Variable,2.3,-,N/A,,Mostly Cloudy,0,2014-01-27 22:30:00